{"data":{"norad_id":58193,"intl_designator":"2023-167U","name":"STARLINK-30822","alt_names":[],"object_type":"PAYLOAD","status":"ACTIVE","operator":null,"country":"US","launch_date":"2023-10-30","launch_site_code":"AFETR","launch_vehicle":null,"mission":null,"orbit_class":"UNKNOWN","rcs_meters":null,"size_class":null,"mass_kg":null,"dimensions":null,"purposes":["comms"],"wikipedia_slug":null,"has_3d_model":false,"image_url":null,"decayed_at":null,"tle_current":{"epoch":"2026-05-25T01:43:47.324928Z","epoch_age_seconds":64991,"freshness":"FRESH","line1":"1 58193U 23167U   26145.07207552  .00002738  00000+0  10894-3 0  9995","line2":"2 58193  43.0070  72.2999 0003051 293.1946  66.8584 15.27595617142667","mean_motion":15.27595617,"eccentricity":0.0003051,"inclination_deg":43.007,"raan_deg":72.2999,"arg_perigee_deg":293.1946,"mean_anomaly_deg":66.8584,"bstar":0.00010894,"rev_number":14266,"period_min":94.265785000612,"perigee_km":480.9089999112,"apogee_km":485.09566713252,"semimajor_km":6861.1393335219,"source":"CELESTRAK","updated_at":"2026-05-25T13:38:18.572737Z"}}}